Location: Knobs
(40.8333°S, 175.2333°E)
Time: 02:28:23
(UTC+00:00)

Helios 1B rocket - Pass Details

Date: 12 June 2024
Orbit: 533 x 540 km, 98.2° (Epoch: 22 July)

Event Time Altitude Azimuth Distance (km) Brightness Sun altitude
Rises 17:41:37 0° 38° (NE) 2,701 6.6 -21.8°
Reaches altitude 10° 17:43:53 10° 49° (NE) 1,820 5.8 -21.4°
Maximum altitude 17:47:21 30° 110° (ESE) 1,001 4.1 -20.7°
Drops below altitude 10° 17:50:52 10° 172° (S) 1,851 4.9 -20.1°
Enters shadow 17:52:16 - 179° (S) 2,387 5.4 -19.8°
